Location: Hohenfelde
(53.8441°N, 9.6220°E)
Time: 12:36:04
(UTC+00:00)

Cosmos 2082 Rocket - Pass Details

Date: 14 July 2020
Orbit: 834 x 853 km, 71.0° (Epoch: 12 August)

Event Time Altitude Azimuth Distance (km) Brightness Sun altitude
Exits shadow 00:40:54 - 151° (SSE) 2,839 4.5 -12.9°
Reaches altitude 10° 00:42:12 10° 143° (SE) 2,480 4.3 -12.8°
Maximum altitude 00:46:03 19° 100° (E) 1,926 4.2 -12.6°
Drops below altitude 10° 00:49:55 10° 57° (ENE) 2,489 5.5 -12.5°
Sets 00:53:03 0° 40° (NE) 3,427 6.8 -12.3°
